Location: Baix
(44.7118°N, 4.7648°E)
Time: 10:07:45
(UTC+00:00)

Tiros 1 despin weight - Pass Details

Date: 02 December 2020
Orbit: 594 x 641 km, 48.2° (Epoch: 17 January)

Event Time Altitude Azimuth Distance (km) Brightness Sun altitude
Rises 17:04:16 0° 286° (WNW) 2,942 ? -10.9°
Reaches altitude 10° 17:07:06 10° 270° (W) 2,026 ? -11.4°
Maximum altitude 17:10:29 20° 223° (SW) 1,465 ? -11.9°
Drops below altitude 10° 17:13:51 10° 176° (S) 2,004 ? -12.5°
Sets 17:16:38 0° 160° (SSE) 2,899 ? -13.0°
